KK4JIV-13 Weather Reports


time (UTC)temp
F
wind
direction
speed
knots
gust
knots
rain 1hr
in
rain 24hr
in
rain mn
in
humidity
%
barometer
mb
20260504110514 53 29 0.0 0.0 0.00 0.00 0.00 97 1016.7
20260504100430 53 30 0.0 0.0 0.00 0.00 0.00 96 1016.4
20260504081823 55 25 0.0 0.0 0.00 0.00 0.00 94 1016.5
20260504081320 55 33 0.0 0.0 0.00 0.00 0.00 94 1016.5
20260504080816 55 33 0.0 0.0 0.00 0.00 0.00 94 1016.6
20260504080313 55 33 0.0 0.0 0.00 0.00 0.00 93 1016.6
20260504070240 59 12 0.0 0.0 0.00 0.00 0.00 86 1016.8
20260504060201 60 328 0.9 1.7 0.00 0.00 0.00 84 1017.4
20260504050629 60 33 0.0 0.0 0.00 0.00 0.00 84 1017.7
20260504050126 61 33 0.0 0.0 0.00 0.00 0.00 83 1017.5
20260504045623 61 40 0.0 0.0 0.00 0.00 0.00 83 1017.6
20260504045118 61 32 0.0 0.0 0.00 0.00 0.00 82 1017.6
20260504044616 61 28 0.0 0.0 0.00 0.00 0.00 81 1017.8
20260504044113 62 35 0.0 0.0 0.00 0.00 0.00 80 1017.7
20260504043610 62 9 0.0 0.0 0.00 0.00 0.00 80 1017.8
20260504043107 62 31 0.0 0.0 0.00 0.00 0.00 80 1017.9
20260504042604 62 32 0.0 0.0 0.00 0.00 0.00 79 1017.8
20260504042101 62 31 0.0 0.0 0.00 0.00 0.00 79 1017.9
20260504041556 62 31 0.0 0.0 0.00 0.00 0.00 79 1017.8
20260504041053 62 33 0.0 0.0 0.00 0.00 0.00 79 1017.8
20260504040550 63 33 0.0 0.0 0.00 0.00 0.00 79 1017.8
20260504040047 63 30 0.0 0.0 0.00 0.00 0.00 77 1017.8
20260504035544 63 35 0.0 0.0 0.00 0.00 0.00 77 1017.8
20260504035040 64 9 0.0 0.0 0.00 0.00 0.00 77 1018.0
20260504034538 64 9 0.0 0.0 0.00 0.00 0.00 76 1018.1
20260504034035 64 7 0.0 0.0 0.00 0.00 0.00 75 1018.1
20260504033533 64 344 0.0 0.9 0.00 0.00 0.00 74 1018.0
20260504033030 65 348 0.9 0.9 0.00 0.00 0.00 73 1017.8
20260504032527 65 37 0.0 0.0 0.00 0.00 0.00 72 1017.7
20260504032024 66 34 0.0 0.0 0.00 0.00 0.00 70 1017.7
20260504031521 66 33 0.0 0.0 0.00 0.00 0.00 68 1017.7
20260504031017 66 42 0.0 0.0 0.00 0.00 0.00 67 1017.8
20260504030514 66 121 0.9 0.9 0.00 0.00 0.00 67 1017.4
20260504030010 66 60 0.0 0.0 0.00 0.00 0.00 67 1017.6
20260504025507 66 40 0.0 0.0 0.00 0.00 0.00 68 1017.7
20260504025004 66 43 0.0 0.0 0.00 0.00 0.00 67 1017.5
20260504024501 67 80 0.0 0.0 0.00 0.00 0.00 68 1017.4
20260504023959 67 83 0.0 0.0 0.00 0.00 0.00 67 1017.4
20260504023455 67 35 0.0 0.9 0.00 0.00 0.00 66 1017.5
20260504022950 67 50 0.0 0.0 0.00 0.00 0.00 67 1017.5
20260504022446 67 37 0.0 0.0 0.00 0.00 0.00 65 1017.4
20260504021943 67 53 0.0 0.0 0.00 0.00 0.00 67 1017.3
20260504021441 68 43 0.0 0.0 0.00 0.00 0.00 67 1017.3
20260504020938 67 44 0.0 0.0 0.00 0.00 0.00 65 1017.1
20260504020434 68 34 0.0 0.0 0.00 0.00 0.00 64 1017.3
20260504015931 68 74 0.0 0.0 0.00 0.00 0.00 65 1017.2
20260504015427 68 100 0.0 0.9 0.00 0.00 0.00 65 1017.1
20260504014923 68 57 0.0 0.0 0.00 0.00 0.00 64 1016.8
20260504014419 69 76 0.0 0.0 0.00 0.00 0.00 64 1016.9
20260504013916 69 50 0.0 0.9 0.00 0.00 0.00 62 1016.8
20260504013415 69 84 0.9 0.9 0.00 0.00 0.00 62 1016.7
20260504012910 69 94 0.9 1.7 0.00 0.00 0.00 61 1016.6
20260504012409 70 123 0.9 0.9 0.00 0.00 0.00 60 1016.6
20260504011905 70 156 1.7 2.6 0.00 0.00 0.00 59 1016.4
20260504011403 70 62 0.0 0.0 0.00 0.00 0.00 59 1016.4
20260504010858 70 69 0.0 0.9 0.00 0.00 0.00 59 1016.3
20260504010354 71 68 0.0 0.9 0.00 0.00 0.00 58 1016.2
20260504005851 71 78 0.9 0.9 0.00 0.00 0.00 58 1016.1
20260504005347 71 42 1.7 1.7 0.00 0.00 0.00 57 1016.0
20260504004845 71 47 0.0 0.0 0.00 0.00 0.00 57 1016.1
20260504004343 72 80 0.9 0.9 0.00 0.00 0.00 57 1015.9
20260504003839 72 317 0.9 1.7 0.00 0.00 0.00 56 1016.1
20260504003336 72 24 1.7 2.6 0.00 0.00 0.00 55 1016.0
20260504002833 73 85 0.9 2.6 0.00 0.00 0.00 55 1015.9
20260504002329 73 73 0.9 0.9 0.00 0.00 0.00 53 1015.9
20260504001827 73 77 1.7 2.6 0.00 0.00 0.00 53 1015.7
20260504001324 74 43 0.9 1.7 0.00 0.00 0.00 52 1015.6
20260504000821 74 81 0.0 0.0 0.00 0.00 0.00 52 1015.7
20260504000318 74 112 1.7 1.7 0.00 0.00 0.00 51 1015.5
20260503235816 75 84 2.6 3.5 0.00 0.00 0.00 50 1015.5
20260503235313 75 101 0.9 1.7 0.00 0.00 0.00 49 1015.4
20260503234810 76 82 0.9 1.7 0.00 0.00 0.00 47 1015.4
20260503234308 76 86 0.0 0.0 0.00 0.00 0.00 46 1015.3
20260503233806 77 82 0.9 0.9 0.00 0.00 0.00 46 1015.3
20260503233301 77 56 0.0 0.0 0.00 0.00 0.00 42 1015.3
20260503232758 78 32 0.9 1.7 0.00 0.00 0.00 40 1015.3
20260503232256 78 63 0.9 0.9 0.00 0.00 0.00 39 1015.5
20260503231754 78 17 0.0 0.0 0.00 0.00 0.00 40 1015.3
20260503231250 78 28 0.0 0.0 0.00 0.00 0.00 40 1015.4
20260503230746 79 37 0.0 0.0 0.00 0.00 0.00 39 1015.3
20260503230244 79 29 0.0 0.0 0.00 0.00 0.00 38 1015.3
20260503225741 79 26 0.0 0.0 0.00 0.00 0.00 39 1015.3
20260503225241 79 34 0.0 0.0 0.00 0.00 0.00 39 1015.2
20260503224738 79 68 0.0 0.0 0.00 0.00 0.00 39 1015.0
20260503224236 79 125 0.0 0.9 0.00 0.00 0.00 40 1015.0
20260503223733 80 29 0.0 0.0 0.00 0.00 0.00 39 1015.1
20260503223231 80 24 0.9 0.9 0.00 0.00 0.00 39 1015.2
20260503222727 80 30 0.0 0.0 0.00 0.00 0.00 38 1015.2
20260503222225 82 93 0.0 0.0 0.00 0.00 0.00 36 1015.2
20260503221723 82 300 0.9 0.9 0.00 0.00 0.00 35 1015.3
20260503221221 81 324 0.0 0.0 0.00 0.00 0.00 35 1015.3
20260503220717 80 83 0.0 0.0 0.00 0.00 0.00 37 1015.4
20260503220214 82 340 0.9 1.7 0.00 0.00 0.00 35 1015.3
20260503215710 81 28 0.0 0.0 0.00 0.00 0.00 38 1015.3
20260503215207 81 83 0.9 0.9 0.00 0.00 0.00 35 1015.3
20260503214706 81 83 2.6 3.5 0.00 0.00 0.00 34 1015.4
20260503214201 81 8 0.0 0.0 0.00 0.00 0.00 36 1015.3
20260503213655 82 120 1.7 2.6 0.00 0.00 0.00 34 1015.4
20260503213152 82 354 0.0 0.9 0.00 0.00 0.00 36 1015.3
20260503212649 82 129 1.7 1.7 0.00 0.00 0.00 34 1015.2
20260503212146 82 20 1.7 2.6 0.00 0.00 0.00 35 1015.3
20260503211644 81 63 0.0 0.0 0.00 0.00 0.00 36 1015.3
20260503211139 80 107 3.5 3.5 0.00 0.00 0.00 38 1015.4
20260503210635 80 41 0.9 1.7 0.00 0.00 0.00 37 1015.3
20260503210133 80 168 0.0 0.9 0.00 0.00 0.00 37 1015.3
20260503205628 80 88 0.0 0.0 0.00 0.00 0.00 39 1015.2
20260503205124 81 139 2.6 3.5 0.00 0.00 0.00 37 1015.4
20260503204621 81 114 0.9 0.9 0.00 0.00 0.00 37 1015.3
20260503204119 81 2 0.0 0.9 0.00 0.00 0.00 38 1015.4
20260503203615 80 357 1.7 2.6 0.00 0.00 0.00 36 1015.2
20260503203113 81 80 0.0 0.0 0.00 0.00 0.00 38 1015.7
20260503202610 83 315 2.6 5.2 0.00 0.00 0.00 36 1015.7
20260503202108 83 150 1.7 1.7 0.00 0.00 0.00 35 1015.6
20260503201606 81 29 1.7 2.6 0.00 0.00 0.00 36 1015.7
20260503201103 80 311 0.0 0.9 0.00 0.00 0.00 35 1015.9
20260503200559 81 332 2.6 3.5 0.00 0.00 0.00 36 1016.0
20260503200056 83 342 1.7 1.7 0.00 0.00 0.00 33 1016.0
20260503195548 81 352 1.7 1.7 0.00 0.00 0.00 36 1016.0
20260503195045 80 351 0.0 0.9 0.00 0.00 0.00 36 1016.1
20260503194542 81 315 0.9 1.7 0.00 0.00 0.00 35 1016.3
20260503194041 79 45 0.0 0.0 0.00 0.00 0.00 39 1016.3
20260503193539 80 18 2.6 5.2 0.00 0.00 0.00 37 1016.4
20260503193033 79 30 1.7 2.6 0.00 0.00 0.00 39 1016.5
20260503192530 82 119 3.5 3.5 0.00 0.00 0.00 36 1016.8
20260503192026 82 294 1.7 1.7 0.00 0.00 0.00 35 1016.6
20260503191523 79 60 1.7 1.7 0.00 0.00 0.00 35 1016.7
20260503191020 79 27 1.7 1.7 0.00 0.00 0.00 37 1016.8
20260503190517 80 75 4.3 5.2 0.00 0.00 0.00 38 1016.9
20260503190014 81 38 0.9 1.7 0.00 0.00 0.00 37 1016.9
20260503185510 79 26 0.0 0.9 0.00 0.00 0.00 38 1017.1
20260503185010 79 27 1.7 2.6 0.00 0.00 0.00 39 1017.2
20260503184506 80 356 0.0 0.0 0.00 0.00 0.00 39 1017.2
20260503184003 80 30 0.9 1.7 0.00 0.00 0.00 39 1017.3
20260503183459 79 94 3.5 3.5 0.00 0.00 0.00 38 1017.3
20260503182956 80 106 3.5 5.2 0.00 0.00 0.00 38 1017.4
20260503182455 80 89 0.9 0.9 0.00 0.00 0.00 37 1017.6
20260503181952 82 68 1.7 1.7 0.00 0.00 0.00 41 1017.6
20260503181449 79 53 0.9 1.7 0.00 0.00 0.00 42 1017.5
20260503180945 78 115 5.2 7.8 0.00 0.00 0.00 42 1017.6
20260503180444 80 85 1.7 1.7 0.00 0.00 0.00 42 1017.6
20260503175940 81 147 0.0 0.9 0.00 0.00 0.00 40 1017.5
20260503175438 78 329 0.9 0.9 0.00 0.00 0.00 44 1017.5
20260503174933 79 9 2.6 2.6 0.00 0.00 0.00 41 1017.7
20260503174432 79 63 1.7 2.6 0.00 0.00 0.00 43 1017.9
20260503173932 80 61 0.9 0.9 0.00 0.00 0.00 43 1017.7
20260503173428 78 336 0.0 0.9 0.00 0.00 0.00 45 1017.8
20260503172925 78 89 2.6 5.2 0.00 0.00 0.00 43 1017.9
20260503172422 79 56 0.9 0.9 0.00 0.00 0.00 43 1018.0
20260503171918 78 60 2.6 3.5 0.00 0.00 0.00 45 1018.1
20260503171415 77 336 1.7 1.7 0.00 0.00 0.00 48 1018.1
20260503170913 78 0 0.0 0.0 0.00 0.00 0.00 48 1018.0
20260503170409 78 93 2.6 2.6 0.00 0.00 0.00 47 1018.4
20260503150801 72 106 3.5 6.1 0.00 0.00 0.00 60 1018.8
20260503150257 73 128 1.7 2.6 0.00 0.00 0.00 59 1018.7
20260503140222 69 10 1.7 1.7 0.00 0.00 0.00 73 1018.5
20260503131151 65 28 0.0 0.9 0.00 0.00 0.00 82 1018.1
20260503130649 63 313 0.0 0.9 0.00 0.00 0.00 88 1018.2
20260503130146 61 28 0.0 0.9 0.00 0.00 0.00 93 1018.0